Theta_e
316 317 317 318 318 318 318 318 318 318 317 317 316 314 313 314 316 318 319 320 321 321 321 320 321 318 316 321 321 320 319 316 315 316 316 317 317 318 319 319 319 320 320 320 319 319 319
316 316 317 318 318 318 318 319 318 318 318 317 316 314 312 313 316 317 318 318 320 321 319 318 320 317 318 321 320 320 319 318 319 316 316 316 317 318 320 320 319 320 320 320 320 320 320
317 317 317 318 318 318 319 319 319 319 319 318 315 313 312 313 315 317 317 317 318 317 316 317 319 316 318 320 323 321 320 319 318 319 318 319 319 321 320 320 321 321 321 321 321 321 321
318 318 318 318 318 318 319 319 319 320 319 317 314 313 312 314 315 317 317 317 318 316 318 320 319 316 323 323 322 321 319 318 319 319 319 320 321 319 321 320 321 321 321 322 322 322 322
320 319 319 319 319 319 319 319 319 319 317 315 313 313 313 315 316 317 317 317 320 320 320 320 318 319 326 322 320 320 320 319 319 318 318 318 318 318 319 319 320 321 323 323 324 323 322
322 322 321 321 320 320 320 319 317 317 317 316 315 315 316 317 318 318 318 321 321 319 320 321 319 320 321 323 320 318 318 316 318 318 319 317 318 317 318 319 324 324 324 322 322 321 321
323 322 321 321 321 320 319 318 318 320 320 319 319 318 319 319 319 318 319 321 317 318 318 318 318 320 318 320 321 316 316 316 317 317 319 320 319 320 320 320 322 323 323 322 321 319 320
322 321 320 320 320 319 319 319 320 320 320 320 320 319 319 319 318 318 321 320 319 318 319 318 318 318 318 319 316 317 316 315 317 317 318 321 321 320 321 322 323 323 321 319 318 318 318
321 321 320 320 319 319 320 320 320 320 320 320 320 320 320 320 317 322 322 320 319 317 317 320 321 321 320 315 316 317 316 317 319 319 320 319 320 321 320 319 319 319 318 317 317 315 315
321 321 321 320 320 320 320 320 320 320 320 320 320 320 321 320 321 322 321 320 319 316 323 327 324 320 316 315 317 317 317 317 319 319 319 319 320 320 319 318 318 317 317 318 316 315 316
322 321 321 321 320 320 320 321 321 321 321 320 320 321 321 320 318 321 320 319 318 318 321 324 319 316 316 318 317 317 317 317 320 323 320 320 319 318 319 319 318 319 318 316 316 314 314
322 321 321 320 320 321 321 321 321 322 321 321 321 321 321 319 319 318 320 319 317 324 328 327 316 317 317 316 318 318 317 319 321 322 320 319 318 317 317 318 318 318 315 315 315 315 318
322 322 321 320 321 321 321 322 322 322 322 322 321 321 321 320 320 320 320 316 321 326 321 325 325 322 321 322 323 321 324 324 323 323 322 321 320 318 317 317 317 317 317 318 320 320 320
324 322 322 321 321 322 322 322 322 322 322 322 322 321 321 321 320 317 315 319 322 320 321 321 322 322 325 326 326 327 325 325 320 319 318 320 323 318 316 314 315 315 317 321 322 323 321
325 323 322 322 322 322 322 322 322 322 322 322 322 319 318 320 319 317 316 321 322 320 320 322 322 324 325 325 323 321 321 321 318 317 320 322 322 317 317 315 315 317 318 316 321 319 322
327 325 323 323 322 323 322 323 323 323 323 322 320 313 311 315 317 313 316 322 321 320 321 322 326 324 326 325 326 325 324 318 316 315 314 316 320 316 315 313 313 313 313 316 320 322 321
328 327 325 324 323 323 323 323 324 324 324 323 316 313 308 311 313 311 316 318 320 319 320 319 322 323 324 326 325 326 325 319 315 314 312 315 316 316 313 314 314 313 313 314 315 317 319
325 327 327 326 324 323 323 324 324 325 324 317 311 317 307 310 312 311 316 317 314 317 313 315 316 320 323 321 323 322 322 319 312 311 312 307 309 310 312 310 309 308 307 308 314 316 315
321 323 327 327 326 326 324 325 325 324 324 313 311 304 305 306 313 311 309 313 312 313 313 314 316 316 316 318 318 317 317 313 309 310 310 307 306 306 308 308 307 306 305 304 305 306 308
319 322 326 326 326 326 327 326 325 324 321 317 304 306 302 305 304 311 312 311 312 309 312 312 312 313 313 315 316 315 315 312 308 306 304 303 304 306 308 308 304 303 303 302 302 304 303
319 321 325 325 326 326 325 326 324 320 317 315 307 307 305 307 305 306 310 311 311 311 310 309 309 311 313 311 314 315 314 313 308 305 303 303 304 304 303 303 302 301 301 300 299 299 299
320 321 323 324 324 324 325 324 319 317 314 307 303 304 302 304 305 306 307 307 310 310 307 308 311 310 312 312 311 313 313 311 312 308 304 303 303 302 300 301 301 301 301 300 299 299 299
319 319 319 322 322 322 322 321 317 316 313 300 300 301 305 303 303 305 306 308 309 308 307 308 309 310 311 311 310 309 307 306 306 306 306 306 304 304 303 301 301 299 299 299 298 298 300
320 321 320 320 320 320 321 319 317 314 312 303 300 302 305 306 304 305 308 306 309 308 308 308 308 308 306 303 301 302 302 302 302 301 301 302 301 301 301 300 299 298 298 298 299 302 301
321 320 318 317 317 317 316 314 310 309 307 305 302 302 304 305 305 307 307 308 307 307 307 306 305 304 303 298 300 299 297 298 297 298 298 298 299 299 298 298 298 298 300 301 301 301 297
318 313 310 307 309 310 309 306 306 307 307 304 302 304 304 306 306 308 308 308 307 306 305 302 300 299 298 300 299 298 296 297 297 298 298 298 298 297 297 297 297 297 301 300 299 300 297
303 302 303 303 304 304 305 305 305 305 304 304 301 301 302 302 298 302 304 305 304 304 303 300 298 297 296 297 296 298 297 297 298 297 297 298 298 298 299 300 301 300 298 299 300 297 293
302 302 302 302 301 302 301 301 301 300 300 301 297 299 300 298 296 298 298 297 298 299 300 298 297 296 294 292 295 294 296 296 297 297 298 299 299 300 299 300 297 299 299 293 294 295 298
301 301 300 300 299 298 297 297 298 297 296 296 295 295 297 297 296 296 295 296 296 296 297 297 296 296 295 293 291 294 297 299 299 297 296 296 297 297 295 294 296 298 295 296 297 294 298
Wind_Speed
27 25 21 20 20 18 16 14 15 14 13 12 15 17 19 20 21 24 27 29 30 32 32 34 36 31 15 5 9 8 4 7 6 5 6 5 7 7 12 6 9 13 13 12 10 10 8
28 26 24 23 21 20 17 15 15 16 15 14 15 17 19 20 22 25 29 31 32 34 33 34 34 24 4 7 8 4 0 7 8 12 9 11 8 10 10 9 7 6 15 13 11 11 10
30 28 26 25 23 22 19 17 16 16 17 15 15 17 19 20 22 26 30 33 34 36 36 36 30 13 4 14 9 7 5 11 13 18 9 18 22 4 6 8 8 7 8 14 16 13 17
32 30 26 26 25 23 20 19 16 17 16 16 15 17 17 20 22 26 31 34 36 39 37 34 28 6 7 20 10 8 6 13 16 15 17 15 16 5 3 7 9 11 8 8 16 15 17
33 31 28 26 26 24 22 19 17 17 17 17 15 16 16 19 21 25 30 35 36 31 27 25 5 5 7 8 2 1 4 11 19 6 10 14 3 2 5 4 6 6 8 14 19 18 7
35 33 30 27 26 24 23 20 17 17 16 16 16 16 15 18 21 24 29 32 24 20 14 5 3 1 7 6 16 14 20 16 5 6 7 6 2 4 2 3 6 7 6 8 10 8 16
37 34 32 28 28 25 24 21 18 17 15 14 16 15 14 16 19 20 28 22 6 5 11 8 13 10 20 19 24 7 8 2 7 4 4 6 4 7 11 13 15 11 12 12 12 10 16
38 37 34 31 30 26 25 21 19 17 16 14 14 15 14 15 16 18 16 4 7 6 12 16 24 19 29 21 5 7 3 3 6 7 8 4 11 15 14 14 14 13 13 14 8 8 10
39 40 34 32 30 28 26 22 21 18 16 15 14 14 13 13 16 8 12 9 14 16 5 9 7 7 4 7 4 1 7 3 4 6 5 6 11 9 7 6 7 6 8 6 12 9 4
40 39 37 33 31 29 27 24 21 19 18 16 14 12 11 10 6 11 5 11 13 11 4 5 3 2 3 2 4 8 4 1 2 5 8 9 7 5 7 7 7 10 9 7 7 9 4
40 41 39 34 33 30 28 26 22 20 19 16 14 11 10 5 6 6 6 11 13 2 5 4 4 3 2 4 5 7 10 4 7 7 2 8 14 15 14 12 12 17 4 3 2 5 11
43 42 39 35 34 31 30 27 24 22 20 16 15 12 10 6 6 10 7 13 7 4 6 3 4 5 3 7 4 4 7 5 7 7 8 13 12 10 10 14 8 5 3 6 2 0 8
46 43 40 38 35 34 32 28 25 24 21 18 17 15 16 8 3 1 6 3 3 3 7 2 3 1 5 6 7 5 8 9 4 9 9 13 8 5 6 4 3 3 3 4 4 3 10
47 44 42 40 35 36 33 29 27 25 21 20 18 16 19 19 15 5 4 3 4 7 7 11 6 15 10 12 15 14 9 13 4 2 4 3 4 3 5 3 3 4 3 4 7 3 5
48 46 43 41 38 37 33 30 27 25 22 20 16 18 13 23 20 14 3 3 9 7 5 6 11 11 9 5 5 7 5 8 5 5 5 3 4 3 6 2 1 2 2 1 2 1 3
48 45 44 43 40 36 35 32 26 25 23 22 19 10 5 13 21 11 2 5 5 7 6 1 4 5 6 9 7 3 2 3 3 5 4 4 6 5 5 4 3 6 2 1 3 4 7
48 47 44 41 41 34 39 30 28 26 25 26 12 3 6 16 16 2 4 7 7 9 7 6 9 11 9 4 6 4 5 2 2 4 4 3 2 3 9 3 5 4 3 1 1 4 4
46 47 42 38 38 37 36 31 29 28 27 25 6 2 11 19 3 3 6 6 1 5 1 5 2 7 9 7 4 5 7 6 1 2 1 2 3 5 6 11 12 8 6 7 4 4 4
32 40 41 40 39 33 34 31 31 33 34 15 4 2 5 0 4 4 3 4 2 5 6 6 7 5 3 4 4 9 7 4 5 4 1 4 3 3 5 1 1 3 7 9 6 5 2
32 34 37 36 38 36 34 32 34 37 38 23 5 3 2 1 1 3 6 5 5 2 2 3 2 3 4 6 9 4 5 5 4 1 9 4 3 5 7 5 8 9 13 12 8 6 11
31 26 34 32 33 31 27 25 26 30 39 19 2 3 5 5 5 6 5 5 5 6 4 5 5 11 9 6 5 7 8 5 6 8 5 5 5 7 9 11 11 14 13 9 13 14 13
16 27 31 30 24 20 22 21 24 21 36 4 5 5 1 3 5 14 9 7 10 4 8 5 7 12 11 6 7 3 4 5 3 4 4 3 4 5 11 9 14 19 13 14 16 19 19
15 21 26 26 20 17 18 20 18 23 35 5 3 3 3 7 5 6 5 8 10 9 8 6 10 4 7 9 1 1 4 4 6 5 6 5 2 5 16 8 10 10 5 13 17 18 12
20 16 14 14 18 18 17 20 25 31 26 12 6 5 3 3 5 5 4 7 9 9 3 3 2 5 2 5 1 4 7 11 10 11 10 8 8 4 8 8 11 6 9 12 9 4 8
20 16 14 14 13 14 18 23 31 39 18 11 13 5 3 3 3 4 5 3 6 7 2 2 1 3 4 4 2 4 3 3 9 19 15 12 8 3 5 11 12 17 6 2 5 4 4
20 23 23 25 24 25 26 32 33 26 15 22 14 11 4 4 4 4 5 7 3 3 3 6 5 5 4 2 2 2 4 3 4 5 5 12 10 7 3 3 5 1 2 3 7 8 2
42 39 35 32 31 31 29 25 24 25 25 17 9 10 5 4 2 1 2 4 4 5 4 6 4 2 3 2 1 2 4 4 3 5 9 5 2 10 11 7 4 1 6 8 3 4 3
43 39 37 36 33 32 31 29 24 20 17 11 10 8 4 3 3 7 6 4 3 2 3 4 4 2 2 2 2 3 2 3 3 5 5 3 3 2 2 2 5 10 7 6 7 3 3
43 38 36 34 32 29 26 25 23 17 17 19 9 13 13 4 3 8 12 13 12 9 5 1 5 4 4 2 0 1 2 1 5 3 5 2 1 2 5 4 8 2 6 3 3 3 3
Wind_Direction
229 234 234 241 248 253 259 270 280 287 293 305 313 315 319 323 324 324 322 323 324 322 324 325 328 338 347 301 253 263 208 211 211 201 220 255 267 257 247 245 263 255 266 278 292 300 290
229 232 236 239 245 251 256 263 274 285 290 301 308 312 315 320 322 322 321 320 319 317 318 318 323 333 303 272 282 211 180 228 242 224 236 235 238 250 274 274 274 277 287 288 293 301 293
233 231 233 240 243 249 255 259 266 273 287 295 304 308 311 317 321 322 320 319 317 314 312 311 317 329 261 256 281 286 271 247 249 245 235 243 241 250 310 315 278 299 314 305 290 282 272
232 234 232 239 244 246 250 257 265 275 282 292 299 302 310 316 322 322 322 319 317 310 311 306 309 297 240 279 260 270 314 303 293 243 266 284 295 299 285 289 314 294 293 280 275 265 263
232 236 234 237 243 247 248 252 261 267 279 288 292 296 308 314 322 325 324 320 315 314 311 301 277 178 262 228 258 310 306 296 305 282 286 275 281 247 308 285 302 224 255 252 274 272 269
235 235 236 236 240 244 250 251 256 264 273 283 287 293 307 315 324 329 324 325 328 327 7 10 238 300 252 253 344 312 292 266 257 316 316 190 235 222 281 175 240 251 253 291 293 314 324
235 236 238 237 240 240 246 248 255 260 266 275 283 291 304 314 325 329 329 339 8 341 7 242 258 281 298 310 319 284 267 151 203 224 233 277 214 229 226 230 235 260 284 295 300 305 302
233 238 237 236 238 239 243 245 247 255 261 265 274 287 299 313 327 327 329 1 21 330 301 265 262 259 259 267 276 256 110 180 169 209 221 284 246 245 252 261 267 276 285 287 291 289 303
233 237 235 235 237 238 239 242 248 249 254 258 267 280 295 315 331 346 322 25 354 352 293 301 250 222 229 131 260 180 157 304 283 289 271 228 269 312 300 295 320 286 284 305 297 333 299
233 235 234 234 236 237 240 242 242 247 252 255 260 271 289 313 339 331 336 349 340 355 333 272 133 118 114 177 262 228 173 140 319 304 318 264 272 306 320 282 285 284 273 305 343 4 305
233 234 233 232 235 235 236 240 241 244 249 251 255 258 266 279 313 314 349 316 331 24 358 116 107 148 146 194 326 217 196 175 221 256 172 249 302 297 296 283 297 286 278 337 337 322 321
233 232 231 229 234 233 235 235 239 242 245 246 249 248 241 247 251 275 285 312 323 48 263 279 127 191 180 220 240 230 203 221 255 268 239 242 255 268 262 270 276 283 9 336 318 53 276
233 232 231 229 229 233 233 236 238 242 243 246 243 239 230 199 214 92 191 335 37 153 312 326 6 358 250 293 290 265 289 312 280 306 280 287 266 287 10 335 347 346 56 324 319 176 240
233 232 231 232 229 232 232 234 239 243 244 246 242 238 232 221 225 189 121 61 154 237 267 323 346 327 308 308 293 286 301 287 276 356 340 286 321 59 17 64 6 329 124 176 244 230 296
233 232 231 231 230 231 234 234 236 242 245 241 236 219 216 225 215 196 107 194 192 210 257 333 338 289 279 259 13 1 320 287 38 17 202 307 247 75 340 102 56 359 218 146 352 252 245
233 234 233 232 231 230 235 233 234 238 239 234 209 174 196 206 204 143 141 220 223 246 319 359 232 272 271 283 288 284 273 59 111 20 35 332 301 274 22 43 251 211 285 266 70 256 244
231 233 233 233 234 232 237 233 234 236 235 231 177 150 167 178 154 109 200 217 210 219 231 200 229 241 243 268 239 241 240 295 114 129 22 60 198 264 348 229 225 280 238 173 23 238 255
233 235 234 234 238 233 237 234 234 234 231 198 141 175 154 153 136 201 212 199 228 206 135 212 270 248 230 195 235 237 246 217 68 115 233 55 240 259 241 274 276 298 278 277 230 269 257
250 244 235 235 235 233 236 235 235 231 221 152 129 106 180 146 192 217 294 266 218 189 188 195 224 207 160 204 239 229 243 28 153 209 150 184 255 318 304 309 162 5 331 328 344 11 210
251 242 235 234 233 233 237 236 236 234 211 173 128 128 1 195 31 277 177 222 214 244 234 149 184 146 178 220 214 236 236 212 193 171 118 56 288 217 239 281 323 287 292 305 306 263 283
242 253 242 234 234 230 236 240 238 234 199 170 122 179 156 186 229 214 195 165 182 200 208 205 210 207 187 209 209 229 217 181 260 146 152 165 233 244 262 282 293 287 285 303 288 283 274
254 248 238 236 219 226 222 237 235 217 186 118 133 140 104 161 144 196 190 200 190 171 170 210 233 199 212 206 194 184 173 171 173 218 234 214 246 254 268 258 265 269 270 266 267 267 271
246 242 233 221 235 239 234 231 225 202 176 123 114 97 121 155 155 161 204 196 194 151 216 204 206 197 226 238 227 240 268 231 222 243 206 202 224 242 267 261 285 276 229 262 266 267 292
208 237 239 232 231 231 232 221 208 196 181 118 147 123 130 170 177 197 180 197 199 191 148 178 207 160 156 198 230 15 266 258 248 246 231 234 243 242 271 295 269 258 228 263 286 27 66
207 228 212 201 198 183 190 189 173 169 169 126 137 123 116 107 156 151 173 169 164 156 103 109 95 198 199 60 30 314 289 250 245 240 236 227 241 251 239 248 271 295 319 29 34 9 65
186 174 161 153 155 150 153 155 162 165 159 132 107 110 109 118 191 147 157 151 113 121 123 104 80 70 58 99 102 224 244 339 296 333 213 230 215 201 231 228 251 351 76 270 305 267 48
135 128 128 129 124 128 136 135 133 133 137 129 107 118 108 103 3 225 133 167 180 179 176 139 149 77 33 88 111 230 258 279 272 287 294 298 306 219 228 245 243 77 348 298 216 248 265
123 125 125 123 125 126 125 125 124 127 136 136 107 106 140 97 353 42 33 37 19 96 124 154 73 345 39 80 142 247 254 272 307 334 332 328 318 286 217 275 293 185 180 145 212 235 271
127 125 123 125 126 125 122 121 125 126 126 121 97 88 87 86 134 87 67 55 47 48 111 74 146 144 167 117 311 20 328 282 276 264 307 296 43 233 179 234 307 129 195 245 123 187 242